sat.trackr.live / text

‹ back to catalog

STARLINK-35244

NORAD 65829 · 2025-221G

PAYLOAD ACTIVE UNKNOWN

§ Identity

Operator
Country
US
Launch date
2025-09-29
Launch site
AFWTR
Launch vehicle
Mass (kg)
RCS (m²)

Purposes: comms

External: N2YO · Heavens-Above · Gunter

§ Orbital elements

Epoch: 2026-05-25T03:22:34.883328Z

Period
94.10 min
Inclination
53.1571°
Eccentricity
0.0001291
Mean motion
15.30212205 rev/d
Perigee alt
474.3 km
Apogee alt
476.1 km
Semi-major
6,853.3 km
B*
6.5043e-4
RAAN
95.7432°
Arg perigee
117.7297°
Mean anomaly
242.3835°
Rev number
3,771

§ Raw data

STARLINK-352441 65829U 25221G   26145.14068152  .00018961  00000+0  65043-3 0  99922 65829  53.1571  95.7432 0001291 117.7297 242.3835 15.30212205 37717

JSON: /api/v1/satellites/65829 · /tle

For live sub-satellite position, see the globe view (requires WebGL).

§ Visibility from observer

Set your observer location to see the next 7 days of passes ≥ 10°. The values pass through the URL so the page stays shareable.

No JS? Fill the form by hand. The geolocation button needs JavaScript.